QPF
0.19 0.30 0.38 0.56 0.72 0.62 0.53 0.48 0.34 0.28 0.26 0.27 0.28 0.25 0.27 0.29 0.33 0.37 0.35 0.34 0.30 0.26 0.22 0.17 0.12 0.10 0.09 0.08 0.08 0.08 0.09 0.09 0.07 0.07 0.07 0.09 0.14 0.18 0.20 0.21 0.20 0.21 0.18
0.17 0.31 0.45 0.70 0.91 0.86 0.80 0.75 0.60 0.43 0.37 0.32 0.27 0.29 0.31 0.35 0.36 0.34 0.31 0.29 0.27 0.27 0.26 0.25 0.21 0.16 0.13 0.12 0.12 0.10 0.09 0.08 0.07 0.07 0.07 0.07 0.07 0.09 0.11 0.12 0.13 0.15 0.18
0.24 0.45 0.59 0.78 1.00 1.01 0.88 0.82 0.76 0.59 0.48 0.44 0.39 0.37 0.37 0.35 0.33 0.33 0.33 0.32 0.30 0.30 0.29 0.28 0.23 0.17 0.14 0.13 0.14 0.13 0.12 0.10 0.09 0.09 0.08 0.06 0.05 0.05 0.05 0.06 0.07 0.09 0.11
0.31 0.51 0.64 0.79 0.92 0.96 0.87 0.83 0.77 0.72 0.59 0.51 0.46 0.39 0.37 0.36 0.33 0.33 0.34 0.32 0.30 0.28 0.27 0.25 0.19 0.15 0.12 0.10 0.10 0.10 0.09 0.07 0.06 0.06 0.06 0.05 0.05 0.05 0.04 0.03 0.03 0.04 0.04
0.26 0.45 0.55 0.67 0.79 0.82 0.81 0.83 0.77 0.69 0.64 0.60 0.54 0.51 0.46 0.41 0.36 0.32 0.31 0.28 0.24 0.22 0.19 0.19 0.18 0.12 0.08 0.07 0.06 0.05 0.05 0.05 0.05 0.04 0.03 0.03 0.04 0.05 0.05 0.05 0.04 0.04 0.05
0.18 0.25 0.30 0.38 0.50 0.56 0.62 0.68 0.71 0.63 0.54 0.50 0.48 0.50 0.48 0.46 0.42 0.35 0.28 0.26 0.23 0.19 0.15 0.14 0.11 0.07 0.06 0.06 0.05 0.04 0.03 0.03 0.04 0.04 0.05 0.05 0.05 0.06 0.06 0.05 0.04 0.03 0.03
0.13 0.12 0.13 0.19 0.25 0.27 0.32 0.43 0.49 0.47 0.38 0.35 0.38 0.40 0.38 0.39 0.40 0.34 0.29 0.23 0.17 0.14 0.10 0.06 0.04 0.03 0.02 0.02 0.02 0.02 0.02 0.02 0.03 0.03 0.04 0.04 0.04 0.04 0.04 0.04 0.04 0.03 0.04
0.07 0.07 0.07 0.08 0.14 0.16 0.19 0.22 0.26 0.29 0.25 0.20 0.19 0.20 0.22 0.21 0.20 0.16 0.14 0.12 0.08 0.05 0.04 0.03 0.02 0.01 0.01 0.01 0.01 0.01 0.01 0.02 0.02 0.02 0.03 0.03 0.03 0.04 0.04 0.05 0.05 0.05 0.06
0.04 0.05 0.04 0.04 0.05 0.06 0.07 0.07 0.09 0.09 0.08 0.07 0.08 0.09 0.10 0.10 0.08 0.07 0.06 0.05 0.04 0.03 0.02 0.02 0.01 0.01 0.01 0.01 0.01 0.01 0.01 0.02 0.02 0.02 0.02 0.03 0.03 0.03 0.03 0.04 0.05 0.06 0.07
0.03 0.03 0.03 0.03 0.03 0.03 0.04 0.04 0.04 0.04 0.03 0.04 0.04 0.04 0.04 0.04 0.03 0.04 0.03 0.03 0.02 0.02 0.01 0.01 0.01 0.01 0.01 0.01 0.01 0.02 0.02 0.02 0.02 0.02 0.02 0.02 0.02 0.03 0.03 0.03 0.04 0.04 0.05
0.02 0.03 0.03 0.02 0.03 0.03 0.03 0.03 0.03 0.03 0.03 0.03 0.03 0.03 0.02 0.02 0.02 0.02 0.01 0.01 0.01 0.01 0.00 0.00 0.00 0.00 0.01 0.01 0.01 0.01 0.01 0.01 0.01 0.01 0.01 0.01 0.01 0.01 0.02 0.02 0.02 0.02 0.02
0.03 0.03 0.03 0.02 0.02 0.02 0.02 0.02 0.01 0.02 0.02 0.02 0.01 0.01 0.01 0.01 0.01 0.00 0.00 0.00 0.00 0.00 0.00 0.00 0.00 0.00 0.00 0.00 0.00 0.00 0.00 0.00 0.00 0.00 0.00 0.00 0.01 0.01 0.01 0.01 0.02 0.02 0.02
0.02 0.02 0.02 0.01 0.01 0.01 0.01 0.01 0.01 0.01 0.01 0.01 0.01 0.00 0.00 0.00 0.00 0.00 0.00 0.00 0.00 0.00 0.00 0.00 0.00 0.00 0.00 0.00 0.00 0.00 0.00 0.00 0.00 0.00 0.00 0.00 0.01 0.01 0.01 0.02 0.02 0.02 0.02
0.02 0.01 0.02 0.01 0.01 0.01 0.01 0.01 0.00 0.00 0.00 0.00 0.00 0.00 0.00 0.00 0.00 0.00 0.00 0.00 0.00 0.00 0.00 0.00 0.00 0.00 0.00 0.00 0.00 0.00 0.00 0.00 0.00 0.00 0.00 0.00 0.00 0.00 0.00 0.01 0.01 0.01 0.01
0.02 0.02 0.01 0.01 0.01 0.01 0.01 0.01 0.00 0.00 0.00 0.00 0.00 0.00 0.00 0.00 0.00 0.00 0.00 0.00 0.00 0.00 0.00 0.00 0.00 0.00 0.00 0.00 0.00 0.00 0.00 0.00 0.00 0.00 0.00 0.00 0.00 0.00 0.00 0.00 0.00 0.00 0.00
0.04 0.03 0.03 0.02 0.01 0.01 0.01 0.00 0.00 0.00 0.00 0.00 0.00 0.00 0.00 0.00 0.00 0.00 0.00 0.00 0.00 0.00 0.00 0.00 0.00 0.00 0.00 0.00 0.00 0.00 0.00 0.00 0.00 0.00 0.00 0.00 0.00 0.00 0.00 0.00 0.00 0.00 0.00
0.07 0.07 0.06 0.04 0.02 0.01 0.01 0.00 0.00 0.00 0.00 0.00 0.00 0.00 0.00 0.00 0.00 0.00 0.00 0.00 0.00 0.00 0.00 0.00 0.00 0.00 0.00 0.00 0.00 0.00 0.00 0.00 0.00 0.00 0.00 0.00 0.00 0.00 0.00 0.00 0.00 0.00 0.00
0.09 0.10 0.07 0.04 0.03 0.02 0.01 0.01 0.01 0.01 0.00 0.00 0.00 0.00 0.00 0.00 0.00 0.00 0.00 0.00 0.00 0.00 0.00 0.00 0.00 0.00 0.00 0.00 0.00 0.00 0.00 0.00 0.00 0.00 0.00 0.00 0.01 0.00 0.00 0.00 0.00 0.00 0.00
0.07 0.06 0.05 0.04 0.03 0.02 0.02 0.01 0.02 0.01 0.01 0.00 0.00 0.00 0.00 0.00 0.00 0.00 0.00 0.00 0.00 0.00 0.00 0.00 0.00 0.00 0.00 0.00 0.00 0.00 0.00 0.00 0.00 0.00 0.00 0.00 0.00 0.00 0.00 0.00 0.00 0.00 0.00
0.04 0.03 0.02 0.02 0.02 0.01 0.01 0.01 0.01 0.00 0.00 0.00 0.00 0.00 0.00 0.00 0.00 0.00 0.00 0.00 0.00 0.00 0.00 0.00 0.00 0.00 0.00 0.00 0.00 0.00 0.00 0.00 0.00 0.00 0.01 0.00 0.00 0.00 0.00 0.00 0.00 0.00 0.00
0.02 0.02 0.01 0.02 0.02 0.02 0.01 0.01 0.00 0.00 0.00 0.00 0.00 0.00 0.00 0.00 0.00 0.00 0.00 0.00 0.00 0.00 0.00 0.00 0.00 0.00 0.00 0.00 0.00 0.00 0.00 0.00 0.00 0.00 0.00 0.01 0.00 0.00 0.00 0.00 0.00 0.00 0.00
0.02 0.02 0.02 0.01 0.01 0.01 0.01 0.01 0.01 0.00 0.00 0.00 0.00 0.00 0.00 0.00 0.00 0.00 0.00 0.00 0.00 0.00 0.00 0.00 0.00 0.00 0.00 0.00 0.00 0.00 0.00 0.00 0.00 0.00 0.00 0.00 0.00 0.00 0.00 0.00 0.00 0.00 0.00
0.01 0.01 0.02 0.01 0.01 0.01 0.01 0.01 0.00 0.00 0.00 0.00 0.00 0.00 0.00 0.00 0.00 0.00 0.00 0.00 0.00 0.00 0.00 0.00 0.00 0.00 0.00 0.00 0.00 0.00 0.00 0.00 0.00 0.00 0.00 0.00 0.00 0.00 0.00 0.00 0.00 0.00 0.00
0.01 0.01 0.02 0.02 0.02 0.02 0.02 0.01 0.01 0.00 0.00 0.01 0.00 0.00 0.00 0.00 0.00 0.00 0.00 0.00 0.00 0.00 0.00 0.00 0.00 0.00 0.00 0.00 0.00 0.00 0.00 0.00 0.00 0.00 0.00 0.00 0.00 0.01 0.01 0.01 0.01 0.00 0.01
0.02 0.02 0.02 0.02 0.02 0.02 0.01 0.01 0.01 0.00 0.01 0.01 0.01 0.00 0.00 0.00 0.00 0.00 0.00 0.00 0.00 0.00 0.00 0.00 0.00 0.00 0.00 0.00 0.00 0.00 0.00 0.00 0.00 0.00 0.00 0.01 0.01 0.01 0.01 0.01 0.01 0.01 0.01
0.02 0.02 0.02 0.01 0.01 0.01 0.01 0.01 0.01 0.00 0.00 0.01 0.00 0.00 0.00 0.00 0.00 0.00 0.00 0.00 0.00 0.00 0.00 0.00 0.00 0.00 0.00 0.00 0.00 0.00 0.00 0.00 0.00 0.00 0.00 0.01 0.00 0.00 0.01 0.00 0.00 0.00 0.00
MSLP
1006.60 1006.66 1006.79 1006.99 1007.24 1007.56 1007.94 1008.40 1008.97 1009.64 1010.42 1011.29 1012.21 1013.15 1014.05 1014.86 1015.56 1016.13 1016.57 1016.89 1017.14 1017.35 1017.54 1017.75 1017.99 1018.25 1018.52 1018.78 1019.00 1019.19 1019.32 1019.39 1019.42 1019.41 1019.36 1019.28 1019.18 1019.05 1018.89 1018.70 1018.49 1018.27 1018.05
1007.49 1007.58 1007.71 1007.85 1008.02 1008.21 1008.45 1008.78 1009.24 1009.83 1010.58 1011.44 1012.40 1013.39 1014.35 1015.23 1015.98 1016.58 1017.04 1017.38 1017.64 1017.85 1018.06 1018.27 1018.52 1018.78 1019.04 1019.29 1019.50 1019.66 1019.76 1019.82 1019.84 1019.84 1019.82 1019.79 1019.73 1019.65 1019.53 1019.37 1019.17 1018.94 1018.69
1008.57 1008.70 1008.83 1008.94 1009.02 1009.09 1009.20 1009.39 1009.72 1010.23 1010.91 1011.75 1012.71 1013.73 1014.73 1015.66 1016.45 1017.08 1017.57 1017.93 1018.21 1018.43 1018.64 1018.87 1019.11 1019.37 1019.62 1019.85 1020.04 1020.17 1020.26 1020.31 1020.34 1020.35 1020.36 1020.36 1020.36 1020.32 1020.24 1020.11 1019.93 1019.69 1019.43
1009.74 1009.91 1010.06 1010.14 1010.16 1010.14 1010.13 1010.20 1010.42 1010.82 1011.43 1012.23 1013.17 1014.19 1015.21 1016.15 1016.97 1017.64 1018.16 1018.54 1018.83 1019.07 1019.29 1019.52 1019.77 1020.02 1020.25 1020.47 1020.63 1020.76 1020.83 1020.88 1020.91 1020.94 1020.98 1021.03 1021.06 1021.06 1021.02 1020.92 1020.74 1020.51 1020.23
1010.90 1011.13 1011.30 1011.39 1011.38 1011.30 1011.21 1011.19 1011.31 1011.63 1012.15 1012.89 1013.79 1014.78 1015.79 1016.74 1017.57 1018.26 1018.80 1019.20 1019.51 1019.77 1020.00 1020.24 1020.47 1020.71 1020.94 1021.13 1021.29 1021.40 1021.47 1021.52 1021.56 1021.61 1021.68 1021.75 1021.82 1021.85 1021.83 1021.74 1021.57 1021.33 1021.03
1012.01 1012.30 1012.53 1012.64 1012.64 1012.55 1012.42 1012.34 1012.39 1012.63 1013.08 1013.74 1014.57 1015.52 1016.49 1017.42 1018.25 1018.94 1019.49 1019.92 1020.24 1020.51 1020.75 1020.99 1021.22 1021.45 1021.65 1021.83 1021.97 1022.07 1022.14 1022.20 1022.26 1022.33 1022.41 1022.51 1022.59 1022.64 1022.63 1022.54 1022.37 1022.12 1021.81
1013.05 1013.42 1013.72 1013.89 1013.93 1013.86 1013.74 1013.64 1013.64 1013.82 1014.20 1014.78 1015.53 1016.40 1017.32 1018.20 1019.00 1019.68 1020.24 1020.67 1021.01 1021.29 1021.53 1021.76 1021.98 1022.19 1022.38 1022.54 1022.66 1022.76 1022.82 1022.88 1022.95 1023.03 1023.13 1023.23 1023.32 1023.38 1023.37 1023.28 1023.10 1022.84 1022.51
1014.03 1014.48 1014.86 1015.12 1015.22 1015.21 1015.12 1015.03 1015.01 1015.15 1015.46 1015.96 1016.63 1017.41 1018.24 1019.06 1019.82 1020.47 1021.01 1021.44 1021.78 1022.07 1022.31 1022.52 1022.73 1022.91 1023.08 1023.21 1023.32 1023.40 1023.46 1023.52 1023.59 1023.68 1023.77 1023.87 1023.96 1024.01 1023.99 1023.90 1023.72 1023.45 1023.11
1014.93 1015.47 1015.94 1016.28 1016.48 1016.54 1016.50 1016.45 1016.44 1016.55 1016.80 1017.23 1017.80 1018.49 1019.23 1019.97 1020.66 1021.27 1021.79 1022.21 1022.55 1022.82 1023.06 1023.26 1023.44 1023.59 1023.72 1023.83 1023.91 1023.97 1024.02 1024.07 1024.13 1024.21 1024.30 1024.39 1024.47 1024.50 1024.48 1024.37 1024.19 1023.93 1023.60
1015.75 1016.38 1016.93 1017.36 1017.64 1017.78 1017.82 1017.81 1017.83 1017.93 1018.15 1018.51 1018.99 1019.58 1020.22 1020.88 1021.50 1022.06 1022.54 1022.94 1023.27 1023.54 1023.76 1023.94 1024.08 1024.21 1024.30 1024.37 1024.42 1024.45 1024.48 1024.52 1024.56 1024.62 1024.70 1024.77 1024.82 1024.84 1024.81 1024.71 1024.54 1024.29 1023.98
1016.50 1017.18 1017.80 1018.30 1018.65 1018.87 1018.98 1019.03 1019.09 1019.20 1019.40 1019.70 1020.12 1020.61 1021.16 1021.73 1022.28 1022.79 1023.23 1023.61 1023.92 1024.18 1024.38 1024.54 1024.66 1024.75 1024.80 1024.83 1024.84 1024.84 1024.84 1024.86 1024.88 1024.92 1024.97 1025.02 1025.05 1025.05 1025.01 1024.91 1024.75 1024.52 1024.24
1017.16 1017.88 1018.53 1019.07 1019.47 1019.75 1019.93 1020.05 1020.15 1020.28 1020.48 1020.75 1021.11 1021.53 1022.01 1022.50 1022.98 1023.43 1023.84 1024.19 1024.49 1024.73 1024.93 1025.07 1025.16 1025.22 1025.24 1025.23 1025.20 1025.17 1025.14 1025.13 1025.12 1025.13 1025.16 1025.17 1025.18 1025.16 1025.11 1025.01 1024.86 1024.66 1024.41
1017.76 1018.47 1019.11 1019.65 1020.08 1020.41 1020.64 1020.82 1020.98 1021.15 1021.36 1021.62 1021.94 1022.31 1022.72 1023.14 1023.57 1023.97 1024.35 1024.68 1024.96 1025.20 1025.38 1025.51 1025.59 1025.62 1025.62 1025.58 1025.53 1025.46 1025.41 1025.36 1025.33 1025.31 1025.30 1025.28 1025.26 1025.21 1025.14 1025.03 1024.88 1024.69 1024.47
1018.29 1018.96 1019.56 1020.08 1020.50 1020.85 1021.13 1021.36 1021.58 1021.80 1022.04 1022.31 1022.61 1022.95 1023.30 1023.67 1024.05 1024.41 1024.75 1025.06 1025.34 1025.57 1025.76 1025.88 1025.96 1025.98 1025.96 1025.90 1025.83 1025.74 1025.66 1025.59 1025.53 1025.48 1025.43 1025.37 1025.31 1025.23 1025.12 1024.99 1024.83 1024.64 1024.42
1018.78 1019.38 1019.91 1020.37 1020.77 1021.12 1021.44 1021.72 1021.99 1022.26 1022.54 1022.83 1023.13 1023.45 1023.77 1024.10 1024.42 1024.75 1025.06 1025.36 1025.63 1025.86 1026.05 1026.18 1026.26 1026.28 1026.26 1026.20 1026.12 1026.02 1025.92 1025.83 1025.74 1025.65 1025.56 1025.47 1025.36 1025.22 1025.07 1024.90 1024.71 1024.50 1024.27
1019.26 1019.76 1020.20 1020.59 1020.96 1021.30 1021.63 1021.96 1022.28 1022.61 1022.93 1023.24 1023.55 1023.85 1024.15 1024.44 1024.73 1025.02 1025.30 1025.58 1025.84 1026.08 1026.27 1026.41 1026.50 1026.54 1026.53 1026.48 1026.39 1026.29 1026.18 1026.07 1025.95 1025.83 1025.70 1025.56 1025.39 1025.20 1024.99 1024.76 1024.52 1024.26 1023.99
1019.73 1020.12 1020.47 1020.79 1021.11 1021.44 1021.79 1022.15 1022.52 1022.89 1023.25 1023.59 1023.90 1024.19 1024.47 1024.72 1024.98 1025.23 1025.49 1025.75 1026.00 1026.24 1026.44 1026.60 1026.71 1026.76 1026.77 1026.73 1026.65 1026.55 1026.43 1026.30 1026.16 1026.00 1025.83 1025.63 1025.40 1025.15 1024.87 1024.57 1024.25 1023.93 1023.61
1020.20 1020.49 1020.75 1021.01 1021.29 1021.60 1021.96 1022.35 1022.75 1023.16 1023.54 1023.90 1024.22 1024.50 1024.75 1024.98 1025.20 1025.43 1025.66 1025.90 1026.14 1026.37 1026.58 1026.76 1026.88 1026.95 1026.98 1026.95 1026.88 1026.79 1026.66 1026.51 1026.34 1026.15 1025.92 1025.66 1025.37 1025.05 1024.70 1024.32 1023.94 1023.54 1023.15
1020.65 1020.87 1021.06 1021.27 1021.52 1021.82 1022.17 1022.57 1023.00 1023.42 1023.83 1024.20 1024.52 1024.79 1025.02 1025.23 1025.42 1025.62 1025.83 1026.05 1026.28 1026.51 1026.72 1026.90 1027.04 1027.13 1027.16 1027.15 1027.09 1026.98 1026.85 1026.68 1026.47 1026.24 1025.96 1025.65 1025.30 1024.91 1024.49 1024.05 1023.59 1023.13 1022.68
1021.07 1021.23 1021.39 1021.56 1021.79 1022.07 1022.42 1022.83 1023.26 1023.69 1024.11 1024.48 1024.80 1025.06 1025.28 1025.47 1025.64 1025.82 1026.01 1026.22 1026.44 1026.66 1026.87 1027.05 1027.20 1027.29 1027.34 1027.32 1027.26 1027.15 1026.99 1026.79 1026.56 1026.28 1025.96 1025.60 1025.20 1024.75 1024.28 1023.78 1023.27 1022.75 1022.24
1021.43 1021.58 1021.71 1021.87 1022.08 1022.36 1022.70 1023.09 1023.52 1023.95 1024.36 1024.72 1025.04 1025.30 1025.51 1025.70 1025.87 1026.04 1026.22 1026.42 1026.63 1026.84 1027.05 1027.23 1027.37 1027.46 1027.50 1027.48 1027.40 1027.28 1027.10 1026.87 1026.60 1026.28 1025.92 1025.52 1025.07 1024.59 1024.08 1023.55 1023.01 1022.46 1021.91
1021.75 1021.89 1022.03 1022.18 1022.38 1022.64 1022.97 1023.35 1023.75 1024.16 1024.56 1024.92 1025.23 1025.50 1025.72 1025.91 1026.09 1026.26 1026.44 1026.64 1026.84 1027.05 1027.25 1027.42 1027.55 1027.63 1027.65 1027.62 1027.52 1027.37 1027.17 1026.91 1026.61 1026.26 1025.87 1025.44 1024.97 1024.47 1023.95 1023.41 1022.85 1022.30 1021.74
1022.01 1022.17 1022.32 1022.48 1022.67 1022.92 1023.22 1023.56 1023.94 1024.32 1024.70 1025.05 1025.37 1025.64 1025.88 1026.09 1026.29 1026.48 1026.67 1026.87 1027.07 1027.27 1027.45 1027.60 1027.72 1027.78 1027.78 1027.73 1027.61 1027.44 1027.21 1026.92 1026.60 1026.23 1025.82 1025.38 1024.91 1024.41 1023.90 1023.37 1022.84 1022.29 1021.75
1022.24 1022.43 1022.59 1022.75 1022.93 1023.16 1023.42 1023.73 1024.07 1024.43 1024.78 1025.12 1025.44 1025.73 1026.00 1026.24 1026.46 1026.67 1026.88 1027.09 1027.28 1027.47 1027.63 1027.76 1027.85 1027.89 1027.87 1027.80 1027.66 1027.47 1027.22 1026.92 1026.58 1026.20 1025.80 1025.36 1024.91 1024.44 1023.95 1023.46 1022.96 1022.45 1021.94
1022.45 1022.66 1022.83 1022.99 1023.16 1023.36 1023.59 1023.85 1024.15 1024.47 1024.80 1025.13 1025.46 1025.77 1026.06 1026.33 1026.58 1026.82 1027.05 1027.26 1027.45 1027.62 1027.76 1027.86 1027.92 1027.94 1027.90 1027.80 1027.66 1027.45 1027.20 1026.90 1026.57 1026.20 1025.81 1025.40 1024.97 1024.54 1024.11 1023.67 1023.22 1022.76 1022.28
1022.65 1022.87 1023.05 1023.20 1023.36 1023.52 1023.71 1023.93 1024.18 1024.47 1024.78 1025.10 1025.43 1025.75 1026.07 1026.37 1026.65 1026.91 1027.14 1027.35 1027.53 1027.68 1027.79 1027.87 1027.91 1027.90 1027.84 1027.74 1027.59 1027.40 1027.15 1026.87 1026.56 1026.22 1025.86 1025.49 1025.11 1024.73 1024.35 1023.96 1023.57 1023.16 1022.72
Thickness
5747 5752 5756 5754 5750 5748 5748 5746 5746 5746 5744 5740 5738 5731 5726 5723 5721 5719 5717 5717 5716 5715 5714 5713 5712 5710 5708 5707 5706 5704 5701 5698 5696 5693 5689 5686 5684 5682 5680 5678 5676 5675 5674
5736 5740 5742 5742 5743 5740 5739 5738 5737 5736 5737 5735 5732 5727 5720 5715 5712 5708 5706 5706 5706 5706 5705 5704 5702 5700 5699 5698 5697 5697 5693 5689 5688 5685 5680 5676 5674 5673 5671 5668 5667 5665 5664
5723 5726 5728 5729 5728 5727 5726 5727 5724 5726 5727 5726 5724 5719 5714 5708 5702 5698 5697 5696 5696 5696 5694 5693 5692 5690 5690 5688 5687 5687 5685 5681 5678 5677 5674 5668 5664 5662 5660 5658 5656 5654 5652
5710 5714 5716 5716 5715 5716 5719 5719 5713 5712 5713 5715 5713 5711 5705 5697 5691 5689 5688 5686 5685 5685 5684 5681 5680 5679 5678 5677 5676 5676 5675 5672 5669 5666 5664 5661 5658 5654 5650 5647 5644 5643 5640
5697 5700 5702 5703 5703 5705 5708 5706 5703 5698 5701 5703 5703 5699 5693 5687 5681 5679 5677 5676 5674 5673 5672 5669 5667 5667 5666 5664 5663 5663 5662 5660 5657 5654 5651 5649 5646 5643 5640 5636 5632 5630 5628
5685 5687 5689 5690 5689 5691 5693 5692 5689 5685 5688 5690 5689 5686 5681 5677 5672 5669 5667 5664 5661 5659 5659 5658 5656 5655 5654 5651 5650 5649 5648 5646 5644 5640 5637 5634 5631 5627 5625 5622 5619 5616 5613
5672 5673 5675 5674 5675 5677 5679 5679 5677 5674 5675 5675 5674 5671 5669 5666 5662 5657 5653 5650 5647 5646 5644 5644 5643 5642 5640 5638 5637 5636 5634 5631 5628 5625 5621 5618 5615 5613 5610 5607 5603 5600 5597
5660 5658 5657 5658 5660 5662 5663 5664 5663 5661 5660 5660 5659 5656 5654 5652 5648 5644 5640 5638 5635 5633 5632 5631 5630 5628 5627 5625 5623 5622 5619 5616 5613 5609 5605 5602 5599 5597 5595 5591 5587 5582 5579
5645 5645 5644 5643 5645 5647 5647 5647 5647 5646 5645 5645 5644 5642 5640 5638 5634 5631 5628 5625 5622 5620 5619 5618 5616 5614 5612 5610 5608 5606 5603 5601 5597 5593 5590 5587 5584 5581 5579 5575 5572 5567 5561
5634 5634 5633 5632 5633 5633 5632 5632 5632 5632 5632 5631 5630 5628 5626 5625 5622 5619 5615 5612 5610 5608 5606 5604 5602 5600 5597 5595 5593 5590 5587 5585 5581 5578 5575 5572 5568 5565 5563 5559 5556 5552 5546
5624 5624 5623 5621 5621 5621 5620 5619 5619 5618 5618 5617 5616 5615 5613 5611 5609 5606 5602 5599 5597 5594 5591 5589 5587 5584 5582 5579 5577 5575 5573 5569 5566 5563 5560 5556 5553 5549 5546 5543 5539 5534 5529
5615 5614 5612 5612 5611 5609 5608 5607 5606 5605 5604 5604 5603 5602 5599 5597 5594 5591 5588 5586 5583 5580 5578 5575 5572 5569 5566 5564 5562 5559 5557 5554 5550 5547 5545 5541 5538 5533 5530 5526 5522 5517 5513
5605 5604 5602 5601 5599 5598 5596 5595 5593 5593 5592 5591 5590 5588 5585 5582 5580 5577 5575 5572 5570 5566 5563 5560 5557 5554 5551 5549 5547 5545 5542 5539 5536 5534 5531 5527 5523 5519 5514 5510 5506 5502 5500
5597 5595 5592 5591 5589 5587 5586 5584 5582 5581 5579 5578 5576 5573 5570 5569 5566 5564 5561 5559 5556 5552 5549 5546 5543 5540 5537 5535 5533 5531 5528 5526 5523 5521 5518 5514 5510 5506 5502 5498 5493 5489 5485
5589 5586 5583 5581 5578 5576 5574 5572 5571 5569 5567 5566 5563 5560 5558 5556 5553 5551 5548 5545 5543 5540 5536 5533 5530 5527 5525 5522 5520 5518 5516 5513 5510 5508 5505 5502 5498 5494 5490 5486 5482 5478 5474
5581 5577 5574 5571 5567 5565 5564 5561 5559 5556 5555 5552 5550 5548 5546 5543 5541 5538 5535 5532 5530 5527 5524 5520 5517 5515 5513 5510 5508 5506 5503 5501 5498 5495 5492 5490 5485 5482 5479 5476 5474 5471 5467
5573 5569 5564 5561 5558 5556 5553 5550 5547 5545 5543 5540 5539 5536 5534 5532 5529 5527 5524 5521 5518 5515 5511 5508 5506 5503 5501 5499 5498 5496 5493 5490 5487 5484 5481 5479 5476 5472 5469 5468 5467 5466 5464
5564 5559 5555 5551 5548 5546 5544 5541 5539 5536 5533 5531 5528 5526 5524 5521 5518 5516 5513 5510 5507 5504 5501 5498 5496 5493 5491 5489 5487 5486 5483 5480 5478 5476 5473 5470 5467 5465 5463 5462 5461 5461 5461
5555 5551 5547 5544 5540 5537 5535 5533 5530 5527 5524 5521 5519 5517 5514 5511 5508 5505 5503 5501 5499 5496 5493 5490 5487 5483 5481 5479 5478 5476 5473 5471 5469 5468 5466 5465 5462 5461 5460 5458 5456 5457 5459
5546 5542 5538 5535 5532 5530 5528 5525 5521 5518 5515 5513 5511 5508 5506 5503 5499 5497 5495 5493 5491 5487 5484 5481 5478 5475 5472 5471 5469 5468 5465 5463 5462 5462 5462 5461 5460 5459 5458 5455 5454 5454 5457
5538 5534 5531 5528 5525 5523 5520 5516 5513 5510 5508 5506 5503 5500 5497 5495 5492 5489 5487 5485 5482 5478 5475 5472 5470 5467 5465 5464 5463 5461 5459 5457 5456 5457 5458 5459 5459 5459 5459 5458 5456 5456 5456
5531 5528 5524 5520 5518 5516 5513 5509 5506 5504 5502 5499 5496 5492 5489 5488 5485 5481 5478 5476 5473 5470 5467 5464 5462 5460 5459 5458 5457 5456 5456 5455 5454 5454 5455 5457 5458 5459 5460 5460 5460 5459 5459
5527 5523 5519 5515 5512 5510 5507 5503 5500 5498 5496 5492 5488 5485 5482 5480 5477 5474 5470 5467 5465 5462 5460 5457 5455 5454 5453 5453 5453 5453 5452 5452 5452 5452 5454 5456 5458 5459 5460 5460 5460 5460 5458
5523 5519 5515 5511 5507 5505 5502 5498 5496 5493 5489 5485 5481 5479 5475 5472 5469 5467 5465 5461 5458 5456 5455 5453 5451 5449 5449 5449 5449 5449 5450 5451 5451 5452 5454 5456 5457 5458 5458 5458 5457 5457 5455
5519 5515 5510 5506 5502 5500 5496 5494 5491 5487 5483 5479 5476 5473 5470 5467 5464 5461 5459 5457 5455 5453 5451 5449 5448 5446 5446 5447 5447 5446 5447 5447 5448 5448 5450 5450 5450 5451 5452 5452 5453 5452 5452
5516 5510 5506 5502 5498 5495 5492 5489 5486 5482 5478 5474 5471 5468 5465 5462 5460 5457 5454 5453 5452 5451 5450 5448 5447 5446 5446 5446 5446 5446 5447 5448 5448 5446 5444 5444 5444 5444 5445 5445 5445 5446 5445